Weather observations for the past three days for
Tuscaloosa Regional Airport
| Date | Time (cdt) | Wind (mph) | Vis. (mi.) | Weather | Sky Cond. | Temperature (ºF) | Relative Humidity | Wind Chill (°F) | Heat Index (°F) | Pressure | Precipitation (in) | ||||||
|---|---|---|---|---|---|---|---|---|---|---|---|---|---|---|---|---|---|
| Air | Dwpt | 6 hour | altimeter (in) | sea level (mb) | 1 hr | 3 hr | 6 hr | ||||||||||
| Max. | Min. | ||||||||||||||||
| 04 | 15:53 | Calm | 10.00 | Fair | CLR | 77 | 46.4 | 34% | 78 | 29.94 | 0.0 | ||||||
| 04 | 12:53 | S 10 G 16 | 10.00 | Fair | CLR | 77 | 50 | 39% | 78 | 29.99 | 0.0 | ||||||
| 04 | 11:53 | S 9 | 10.00 | Fair | CLR | 75.2 | 51.8 | 44% | 78 | 30.03 | 0.0 | ||||||
| 04 | 10:53 | SW 7 | 10.00 | Fair | CLR | 71.6 | 51.8 | 50% | 30.05 | 0.0 | |||||||
| 04 | 08:53 | SW 5 | 10.00 | Fair | CLR | 60.8 | 48.2 | 63% | 30.06 | 0.0 | |||||||
| 04 | 06:53 | Calm | 7.00 | Fair | CLR | 48.2 | 46.4 | 94% | 30.06 | 0.0 | |||||||
| 03 | 15:53 | NW 9 | 10.00 | Fair | CLR | 73.4 | 39.2 | 29% | 30.07 | 0.0 | |||||||
| 03 | 14:53 | N 9 | 10.00 | Fair | CLR | 73.4 | 42.8 | 33% | 30.11 | 0.0 | |||||||
| 03 | 13:53 | NW 7 | 10.00 | Fair | CLR | 71.6 | 37.4 | 29% | 30.15 | 0.0 | |||||||
| 03 | 13:47 | N 9 G 16 | 10.00 | Fair | CLR | 71.6 | 37.4 | 29% | 30.15 | 0.0 | |||||||
| 03 | 12:00 | N 6 | 10.00 | Fair | CLR | 68 | 37.4 | 33% | 30.2 | 0.0 | |||||||
| 03 | 10:53 | Vrbl 6 | 10.00 | Fair | CLR | 66.2 | 37.4 | 35% | 30.21 | 0.0 | |||||||
| 03 | 09:53 | N 6 | 10.00 | Fair | CLR | 62.6 | 39.2 | 42% | 30.21 | 0.0 | |||||||
| 03 | 08:53 | N 6 | 10.00 | Fair | CLR | 57.2 | 44.6 | 63% | 30.2 | 0.0 | |||||||
| 03 | 07:53 | N 5 | 10.00 | Fair | CLR | 51.8 | 46.4 | 82% | 30.2 | 0.0 | |||||||
| 03 | 06:53 | N 3 | 9.00 | Fair | CLR | 46.4 | 44.6 | 93% | 30.18 | 0.0 | |||||||
| 02 | 16:53 | N 12 G 18 | 10.00 | Fair | CLR | 71.6 | 35.6 | 27% | 29.99 | 0.0 | |||||||
| 02 | 15:53 | NW 15 G 23 | 10.00 | Fair | CLR | 71.6 | 33.8 | 25% | 30 | 0.0 | |||||||
| 02 | 14:53 | N 15 G 23 | 10.00 | Fair | CLR | 71.6 | 35.6 | 27% | 30 | 0.0 | |||||||
| 02 | 13:53 | N 13 G 22 | 10.00 | Fair | CLR | 71.6 | 35.6 | 27% | 30.01 | 0.0 | |||||||
| 02 | 12:53 | N 13 G 22 | 10.00 | Fair | CLR | 68 | 35.6 | 30% | 30.03 | 0.0 | |||||||
| 02 | 10:53 | N 13 G 23 | 10.00 | Fair | CLR | 64.4 | 35.6 | 34% | 30.05 | 0.0 | |||||||
| 02 | 09:53 | N 10 | 10.00 | Fair | CLR | 60.8 | 42.8 | 52% | 30.03 | 0.0 | |||||||
| 02 | 08:53 | N 7 | 10.00 | A Few Clouds | FEW060 | 55.4 | 42.8 | 63% | 30.01 | 0.0 | |||||||
| 02 | 07:53 | N 8 | 10.00 | Fair | CLR | 55.4 | 42.8 | 63% | 29.99 | 0.0 | |||||||
| 02 | 06:53 | N 6 | 10.00 | Fair | CLR | 53.6 | 42.8 | 67% | 29.96 | 0.0 | |||||||
| Date | Time (cdt) | Wind (mph) | Vis. (mi.) | Weather | Sky Cond. | Air | Dwpt | Max. | Min. | Relative Humidity | Wind Chill (°F) | Heat Index (°F) | altimeter (in) | sea level (mb) | 1 hr | 3 hr | 6 hr |
| 6 hour | |||||||||||||||||
| Temperature (ºF) | Pressure | Precipitation (in) | |||||||||||||||